This demonstration page uses our WeatherBlox Daily Observations layout. Learn more.

Left ArrowRight Arrow

44.89941, -97.11507

Hourly Observations for July 28, 2016

Temp ( °F °C ) Dew Point ( °F °C ) Humidity (%) Winds ( mph kmh ) Pressure ( in mb ) Visibility ( mi km ) Precip ( " mm )
12:53 am 00:53 Clear 61 16.1 57 13.9 87 87 NNE 5 7 30.05 1018 10 16 0.00 0.00
1:53 am 01:53 Clear 62 16.7 57 13.9 84 84 NNW 5 7 30.05 1018 10 16 0.00 0.00
2:53 am 02:53 Clear 62 16.7 57 13.9 84 84 N 6 9 30.04 1017 10 16 0.00 0.00
3:53 am 03:53 Clear 61 16.1 57 13.9 87 87 N 6 9 30.03 1017 10 16 0.00 0.00
4:53 am 04:53 Clear 61 16.1 58 14.4 90 90 N 6 9 30.03 1017 10 16 0.00 0.00
5:53 am 05:53 Clear 60 15.6 57 13.9 90 90 N 6 9 30.04 1017 10 16 0.00 0.00
6:53 am 06:53 Mostly Cloudy 61 16.1 58 14.4 90 90 NNW 7 11 30.07 1018 10 16 0.00 0.00
7:36 am 07:36 Cloudy 61 16.1 58 14.4 90 90 NNE 10 17 30.06 1018 10 16 0.00 0.00
7:45 am 07:45 Cloudy 61 16.1 58 14.4 90 90 NNE 9 15 30.06 1018 10 16 0.00 0.00
7:53 am 07:53 Cloudy 62 16.7 59 15 90 90 NNE 6 9 30.06 1018 10 16 0.00 0.00
8:53 am 08:53 Cloudy 64 17.8 61 16.1 90 90 NE 6 9 30.08 1019 10 16 0.00 0.00
9:24 am 09:24 Mostly Cloudy 66 18.9 61 16.1 84 84 ENE 6 9 30.03 1017 10 16 0.00 0.00
9:35 am 09:35 Partly Cloudy 67 19.4 61 16.1 81 81 E 5 7 30.03 1017 10 16 0.00 0.00
9:53 am 09:53 Sunny 69 20.6 60 15.6 73 73 ENE 9 15 30.08 1019 10 16 0.00 0.00
10:53 am 10:53 Mostly Sunny 73 22.8 60 15.6 64 64 ENE 9 15 30.08 1019 10 16 0.00 0.00
11:53 am 11:53 Sunny 74 23.3 57 13.9 56 56 NE 9 15 30.06 1018 10 16 0.00 0.00
12:53 pm 12:53 Sunny 76 24.4 57 13.9 52 52 ESE 8 13 30.07 1018 10 16 0.00 0.00
1:53 pm 13:53 Mostly Sunny 77 25 57 13.9 50 50 E 10 17 30.06 1018 10 16 0.00 0.00
2:53 pm 14:53 Sunny 80 26.7 58 14.4 47 47 E 13 20 30.04 1017 10 16 0.00 0.00
3:53 pm 15:53 Sunny 78 25.6 57 13.9 48 48 ENE 10 17 30.06 1018 10 16 0.00 0.00
4:53 pm 16:53 Sunny 78 25.6 55 12.8 45 45 ENE 14 22 30.05 1018 10 16 0.00 0.00
5:53 pm 17:53 Mostly Sunny 77 25 56 13.3 48 48 E 9 15 30.04 1017 10 16 0.00 0.00
6:53 pm 18:53 Sunny 76 24.4 56 13.3 50 50 NE 8 13 30.04 1017 10 16 0.00 0.00
7:53 pm 19:53 Sunny 74 23.3 55 12.8 52 52 NE 8 13 30.05 1018 10 16 0.00 0.00
8:53 pm 20:53 Sunny 71 21.7 56 13.3 59 59 ENE 6 9 30.05 1018 10 16 0.00 0.00
9:53 pm 21:53 Clear 70 21.1 57 13.9 64 64 ESE 3 6 30.06 1018 10 16 0.00 0.00
10:53 pm 22:53 Clear 67 19.4 56 13.3 68 68 ESE 3 6 30.07 1018 10 16 0.00 0.00
11:53 pm 23:53 Cloudy 68 20 57 13.9 68 68 ENE 3 6 30.08 1019 10 16 0.00 0.00

Powered by AerisWeather